Satellite: TACSAT-3
Catalog number: 35001
Epoch time:      10161.69839826
Element set:     307
Inclination:      040.4586 deg
RA of node:       253.0855 deg
Eccentricity:    0.0022197
Arg of perigee:   315.1050 deg
Mean anomaly:     044.7969 deg
Mean motion:   15.41768713 rev/day
Decay rate:      2.425e-05 rev/day^2
Epoch rev:            5963
Checksum:              300

Satellite: PHARMSAT
Catalog number: 35002
Epoch time:      10160.61836671
Element set:     290
Inclination:      040.4689 deg
RA of node:       257.5982 deg
Eccentricity:    0.0025620
Arg of perigee:   312.0691 deg
Mean anomaly:     047.7949 deg
Mean motion:   15.42292272 rev/day
Decay rate:      2.392e-05 rev/day^2
Epoch rev:            5948
Checksum:              299

Satellite: HAWKSAT1
Catalog number: 35003
Epoch time:      10160.67170610
Element set:    0321
Inclination:      040.4641 deg
RA of node:       252.3020 deg
Eccentricity:    0.0022400
Arg of perigee:   323.4471 deg
Mean anomaly:     036.4817 deg
Mean motion:   15.45345368 rev/day
Decay rate:      5.468e-05 rev/day^2
Epoch rev:           05955
Checksum:              247

Satellite: CP6
Catalog number: 35004
Epoch time:      10161.64149370
Element set:     309
Inclination:      040.4614 deg
RA of node:       245.5717 deg
Eccentricity:    0.0021692
Arg of perigee:   333.7809 deg
Mean anomaly:     026.1907 deg
Mean motion:   15.46170205 rev/day
Decay rate:      6.303e-05 rev/day^2
Epoch rev:            5970
Checksum:              273

Satellite: AEROCUB3
Catalog number: 35005
Epoch time:      10160.62242267
Element set:    0344
Inclination:      040.4707 deg
RA of node:       249.6038 deg
Eccentricity:    0.0018455
Arg of perigee:   338.8402 deg
Mean anomaly:     021.1652 deg
Mean motion:   15.51109506 rev/day
Decay rate:     2.0697e-04 rev/day^2
Epoch rev:           05957
Checksum:              278

Satellite: DRAGNSAT
Catalog number: 35690
Epoch time:      10076.22711312
Element set:     316
Inclination:      051.6170 deg
RA of node:       315.4586 deg
Eccentricity:    0.0004999
Arg of perigee:   310.9891 deg
Mean anomaly:     057.3269 deg
Mean motion:   16.42150010 rev/day
Decay rate:   5.715194e-02 rev/day^2
Epoch rev:            3656
Checksum:              289

Satellite: POLLUX
Catalog number: 35693
Epoch time:      10087.99866888
Element set:     352
Inclination:      051.6099 deg
RA of node:       254.5746 deg
Eccentricity:    0.0006270
Arg of perigee:   294.4866 deg
Mean anomaly:     097.5899 deg
Mean motion:   16.52338462 rev/day
Decay rate:  2.3496735e-01 rev/day^2
Epoch rev:            3839
Checksum:              384

Satellite: CASTOR
Catalog number: 35694
Epoch time:      10161.65650746
Element set:     454
Inclination:      051.6364 deg
RA of node:       235.0815 deg
Eccentricity:    0.0001124
Arg of perigee:   358.9344 deg
Mean anomaly:     001.1659 deg
Mean motion:   16.01677968 rev/day
Decay rate:     5.9022e-04 rev/day^2
Epoch rev:            5001
Checksum:              285

Satellite: METEOR-M
Catalog number: 35865
Epoch time:      10161.73045612
Element set:     372
Inclination:      098.7585 deg
RA of node:       215.5758 deg
Eccentricity:    0.0003421
Arg of perigee:   033.8482 deg
Mean anomaly:     326.2870 deg
Mean motion:   14.21830525 rev/day
Decay rate:       1.76e-06 rev/day^2
Epoch rev:            3780
Checksum:              290

Satellite: RS-38
Catalog number: 35869
Epoch time:      10161.77301077
Element set:     380
Inclination:      098.7581 deg
RA of node:       215.6505 deg
Eccentricity:    0.0005310
Arg of perigee:   030.6245 deg
Mean anomaly:     329.5206 deg
Mean motion:   14.21983052 rev/day
Decay rate:       1.77e-06 rev/day^2
Epoch rev:            3781
Checksum:              291

/EX




More information about the Keps mailing list